Temp
19 20 20 20 20 19 19 18 18 18 18 18 19 18 18 18 18 19 18 19 18 19 18 18 18 18 18 18 17 17 17 17 18 17 17 17 17 17 17 17 17 17 17
21 20 20 20 20 19 19 19 19 19 19 19 19 19 18 19 19 19 18 18 18 17 17 17 18 18 18 18 17 18 18 19 18 18 18 17 17 17 17 17 17 17 17
20 20 20 20 20 19 19 19 19 19 19 19 19 19 19 19 19 18 18 17 17 17 17 17 17 18 17 17 17 17 17 18 18 17 17 17 17 17 17 17 17 16 16
21 20 20 20 20 19 19 19 19 19 19 19 19 19 19 19 19 19 18 17 17 17 17 17 17 17 17 17 17 17 18 18 18 17 17 17 17 17 16 17 16 16 16
21 20 20 20 20 20 19 19 19 19 19 19 19 19 19 18 19 18 17 17 17 17 17 17 16 16 16 16 17 17 17 18 18 17 17 16 16 16 17 17 17 16 16
21 20 20 20 20 20 20 20 19 19 19 18 19 19 19 19 18 17 17 16 16 16 16 16 16 16 16 16 16 18 18 18 18 17 17 17 17 17 17 16 16 16 16
20 20 20 20 20 20 20 19 19 19 19 18 19 18 18 18 17 17 16 16 16 16 16 16 16 16 16 17 17 18 17 18 17 17 17 17 17 16 16 16 15 16 16
20 19 19 20 20 20 19 19 19 19 18 18 18 18 17 17 17 17 16 16 16 16 16 16 16 17 17 17 17 17 17 17 17 16 16 17 16 16 15 16 15 16 15
21 19 19 19 19 20 20 19 19 19 19 19 18 17 17 17 16 16 16 16 16 16 16 16 16 17 17 17 17 17 17 17 17 16 16 16 16 15 16 15 15 15 15
21 21 20 19 19 19 20 20 19 19 19 19 18 17 17 17 16 16 16 16 16 16 16 16 16 16 17 16 17 17 17 17 16 15 15 16 15 15 15 14 15 15 14
21 21 21 19 19 19 19 19 19 19 19 18 18 18 17 16 16 15 15 16 16 16 16 16 15 16 16 16 16 16 16 16 16 15 15 15 14 15 15 15 15 14 14
19 20 21 21 19 19 19 19 19 18 18 18 18 17 16 16 16 15 15 16 16 16 16 15 15 16 16 16 15 16 16 15 15 15 15 15 14 15 14 14 14 14 14
19 19 20 21 20 19 19 19 19 18 17 17 18 18 16 16 15 15 15 15 16 15 15 15 15 15 16 16 15 16 15 15 15 15 15 14 14 14 14 14 14 13 13
19 20 21 21 20 20 19 19 19 18 17 17 17 18 17 16 15 15 15 15 15 16 16 15 14 15 15 15 15 15 15 14 14 14 14 14 14 14 14 14 13 13 13
18 20 21 21 21 20 19 18 19 18 17 16 17 18 17 16 15 15 15 15 15 15 15 15 14 15 15 15 15 15 14 14 14 14 14 14 14 14 14 13 13 13 13
20 20 20 20 20 20 20 18 19 17 16 16 16 17 17 16 15 14 15 15 14 14 14 15 14 14 14 15 14 14 14 14 14 13 13 14 14 13 14 13 13 13 13
21 21 20 20 20 19 19 19 17 16 16 16 16 16 17 16 15 15 14 14 14 14 14 14 14 14 14 14 14 14 14 14 13 13 13 13 13 13 13 13 13 13 13
19 20 21 20 20 19 18 17 16 16 15 15 15 15 16 15 16 15 14 14 14 14 14 14 13 14 14 14 13 13 13 13 13 13 13 13 13 13 13 13 13 12 12
18 19 20 19 19 18 17 16 16 16 16 15 14 13 14 15 15 15 13 13 14 14 14 14 13 14 13 13 13 13 13 13 12 12 12 12 12 13 12 12 12 12 11
17 17 18 18 17 16 16 15 15 15 15 15 14 13 12 12 13 14 13 13 14 14 14 13 13 13 13 12 11 11 12 12 12 12 12 11 11 12 12 11 11 11 10
15 16 16 17 15 15 14 13 12 12 14 14 14 15 14 12 11 12 13 13 14 13 14 14 13 13 11 11 10 9 10 10 11 11 11 11 11 11 11 11 11 10 10
12 12 12 13 12 13 14 15 13 13 12 12 12 13 14 13 12 11 12 13 13 13 13 13 13 11 11 11 11 9 7 8 9 10 10 11 10 10 10 10 10 10 10
11 11 11 11 11 12 12 12 12 12 12 11 11 11 13 14 13 11 11 12 13 13 13 13 13 12 11 11 11 11 7 7 8 9 9 9 10 9 9 9 9 9 9
11 11 11 11 11 12 12 12 12 12 10 10 10 10 10 13 13 13 10 13 13 12 12 13 13 12 11 11 11 13 12 10 7 6 8 8 9 9 9 9 9 9 9
11 12 11 11 11 11 11 12 11 10 10 10 10 9 9 10 13 12 11 12 13 13 13 13 12 12 12 11 12 10 11 10 10 7 5 6 7 8 9 9 9 9 8
9 10 11 11 11 11 11 10 10 10 10 11 10 10 9 9 10 14 11 11 14 14 14 13 13 13 12 12 12 12 12 10 9 8 5 5 6 7 7 8 8 8 8
Height
759 761 763 766 768 769 770 772 775 777 778 780 782 784 787 789 792 793 794 796 798 799 801 802 804 805 806 807 808 808 809 810 810 811 813 815 815 815 814 817 816 818 818
757 761 764 766 767 769 772 773 775 777 780 782 784 786 788 790 793 795 796 797 799 801 802 804 805 806 807 809 809 810 810 811 812 813 814 815 816 817 819 818 819 821 821
756 759 763 765 767 769 771 775 777 777 780 783 785 788 789 791 793 795 797 798 800 802 803 805 806 807 809 810 811 812 812 813 813 814 816 817 818 819 819 820 822 823 823
755 758 761 764 767 769 772 775 777 779 780 782 785 788 790 792 794 796 798 800 801 802 804 806 807 808 810 811 813 814 815 816 816 816 817 818 819 820 822 824 826 826 827
756 758 761 763 766 769 772 774 778 780 781 783 785 788 791 793 795 797 799 800 802 804 805 807 808 810 811 813 814 815 817 818 819 819 819 821 822 824 826 827 829 830 829
756 758 760 763 764 767 770 774 777 779 782 784 786 789 791 794 796 798 800 801 803 805 807 808 810 812 813 814 816 817 818 819 821 821 823 824 825 827 828 830 831 832 832
757 758 760 762 765 766 768 772 775 778 781 784 787 790 792 794 797 799 801 802 805 806 808 809 811 813 814 816 817 818 821 821 822 824 826 827 828 829 831 832 833 834 834
759 760 761 762 764 766 768 770 774 778 781 783 787 790 793 794 796 799 800 803 805 808 809 811 812 814 816 818 819 821 823 824 825 826 828 829 830 832 833 835 837 837 837
759 760 761 763 765 766 768 769 772 775 779 782 786 790 792 795 796 799 801 804 806 809 811 813 814 815 817 818 820 822 825 826 827 829 831 832 833 834 836 838 838 839 839
757 758 759 761 763 765 767 769 771 773 777 780 785 790 792 794 796 798 802 804 807 810 812 814 816 817 819 820 822 824 826 827 829 832 834 835 835 836 837 839 840 841 842
755 756 757 758 760 762 764 767 770 773 775 779 783 788 792 793 795 798 802 805 807 810 812 815 816 818 820 822 824 826 828 829 831 834 836 837 838 838 839 840 842 843 844
752 752 753 755 756 759 762 765 769 771 774 777 780 785 790 793 795 798 801 806 808 810 813 817 818 819 820 823 825 828 830 832 833 835 837 839 840 841 841 842 843 845 846
746 748 750 751 753 756 758 761 766 769 771 775 778 781 787 792 795 798 801 805 808 810 813 817 818 821 822 824 827 829 832 833 834 836 839 840 842 843 843 844 845 847 848
740 742 745 747 748 751 754 757 761 765 768 771 775 778 783 789 793 797 800 803 806 809 812 816 819 822 824 827 829 830 833 835 837 839 840 842 844 844 845 846 847 848 849
735 737 739 742 744 747 749 753 756 760 765 767 770 774 779 784 789 794 797 802 804 808 811 814 818 822 824 827 830 831 834 837 839 840 841 843 844 846 847 848 849 850 851
728 731 734 737 740 742 745 749 752 756 761 764 766 769 774 780 785 790 795 799 802 806 810 813 817 821 824 827 830 833 835 838 840 842 843 844 845 847 848 850 851 852 853
722 725 729 732 735 738 741 745 749 752 756 759 762 766 768 773 780 786 791 795 799 804 808 812 816 820 823 827 830 834 836 838 841 843 845 846 846 848 850 851 853 853 854
717 720 723 727 730 734 738 741 744 749 753 756 759 761 762 769 773 781 786 791 796 801 806 809 813 817 821 826 829 834 837 839 842 844 846 847 848 848 850 852 853 855 854
712 715 719 723 726 730 734 738 741 746 750 754 754 759 760 762 767 773 781 787 792 797 803 807 811 814 819 825 829 834 837 839 842 845 847 848 849 850 851 853 854 854 856
709 712 717 720 723 727 731 735 738 741 745 748 751 757 757 759 763 766 774 782 788 794 799 804 809 813 818 823 830 835 838 840 843 845 848 849 850 851 852 853 855 855 856
710 711 714 716 719 723 728 732 736 737 740 743 745 747 754 761 762 770 765 775 784 789 794 800 805 810 818 821 827 837 840 841 843 846 848 849 851 852 852 853 854 855 856
712 713 714 716 717 721 724 726 730 732 735 738 741 745 743 753 768 765 769 769 777 785 791 796 800 806 814 818 822 831 843 846 845 846 847 849 851 852 853 854 855 856 857
715 716 716 716 718 721 724 724 727 729 731 734 737 740 737 740 759 764 767 773 775 779 784 790 795 799 806 815 816 818 836 839 841 845 846 848 850 851 853 854 855 856 857
717 718 718 718 719 720 722 723 723 723 725 726 729 735 738 737 738 749 765 772 771 776 780 785 791 796 801 807 814 815 817 821 835 844 844 846 848 850 852 854 854 855 856
718 718 718 719 719 720 721 721 723 723 724 725 727 732 736 740 731 738 755 766 765 772 778 782 787 792 796 801 806 810 815 818 823 829 839 842 845 847 849 852 854 854 855
721 719 718 718 718 718 718 720 721 724 724 724 723 726 729 731 730 726 749 762 762 767 773 778 783 789 792 797 802 806 808 813 818 822 830 837 841 844 847 849 852 853 854
Wind_Speed
8 20 18 19 21 20 19 19 18 17 18 18 19 19 18 18 17 17 17 18 16 15 12 13 12 12 14 14 14 14 14 13 13 14 15 16 17 16 18 20 22 20 18
11 21 20 21 21 21 19 19 20 19 17 18 19 18 18 19 19 18 16 15 12 11 11 11 12 13 13 11 13 13 15 16 15 15 15 16 13 16 16 17 17 17 17
18 23 20 21 20 21 21 19 20 21 19 19 19 18 18 18 17 16 14 12 11 10 11 12 13 14 14 13 15 17 19 18 17 17 17 16 18 18 17 16 15 15 14
24 24 23 22 23 20 21 20 20 22 21 21 20 18 15 16 16 15 13 11 10 12 12 13 15 15 15 16 18 20 20 19 19 20 19 19 20 20 21 20 17 16 13
24 23 23 25 23 23 21 20 19 21 21 22 18 19 15 15 15 14 13 12 12 13 14 14 14 15 17 17 18 16 16 17 16 19 22 22 22 20 18 15 14 14 15
22 23 22 24 24 25 23 23 24 23 22 21 17 18 18 16 15 14 14 14 14 15 15 15 16 18 18 17 14 16 17 15 13 12 15 16 16 16 14 16 16 14 16
19 21 22 22 25 24 25 24 25 25 23 21 17 17 17 17 14 14 13 14 14 15 15 15 17 19 19 17 16 17 17 13 14 19 17 17 18 18 19 19 19 15 16
15 19 23 23 23 27 24 25 24 24 24 23 19 18 17 16 15 15 14 15 15 14 15 16 20 20 18 19 20 20 19 16 22 22 20 19 18 17 16 15 14 17 13
2 15 22 25 24 24 26 25 25 27 26 22 19 19 19 18 18 16 16 17 16 15 17 19 19 18 20 21 20 20 20 22 20 18 16 14 14 15 13 12 12 13 15
4 5 16 25 26 26 28 27 27 29 28 24 20 20 20 20 19 18 18 18 18 17 18 21 19 18 22 22 21 22 23 21 19 19 14 13 14 14 15 14 13 12 11
10 8 10 21 28 28 29 31 28 29 28 25 21 21 21 23 22 21 21 19 20 20 21 21 17 20 23 21 22 24 21 21 21 19 17 16 16 16 15 15 15 14 13
13 13 12 14 26 29 28 30 30 30 30 27 26 25 24 24 23 23 23 20 21 21 22 21 18 24 26 27 26 23 20 22 22 21 15 14 15 14 15 15 15 14 14
13 15 17 14 18 29 32 30 32 32 33 30 30 28 27 26 24 24 25 22 23 22 24 24 20 24 28 28 26 24 23 21 21 19 17 15 14 15 15 15 15 14 14
18 15 16 17 17 20 30 33 32 34 34 34 33 30 30 29 26 28 28 26 27 27 27 28 23 24 26 27 25 24 22 23 22 19 16 15 14 14 15 16 15 15 14
22 21 19 20 19 19 21 31 32 34 34 38 37 34 33 32 31 32 31 27 28 27 29 30 26 25 27 28 25 23 24 23 21 20 17 17 15 15 14 15 15 15 14
25 25 23 22 22 20 19 25 31 33 34 38 40 39 37 35 34 36 33 28 31 28 31 31 29 27 29 29 26 24 26 25 22 19 18 18 17 14 16 15 14 15 15
29 27 26 24 23 22 21 19 27 29 31 34 41 41 40 39 37 39 38 33 35 32 31 31 28 26 30 31 28 27 27 25 23 21 19 18 18 16 16 15 13 14 14
28 28 25 24 25 25 21 22 25 24 21 24 38 42 44 42 40 41 40 37 38 36 32 34 31 28 34 32 30 28 27 24 23 21 18 20 18 18 18 16 15 15 13
20 25 24 20 22 24 22 22 26 20 15 20 20 28 42 44 43 44 41 39 41 38 35 37 32 31 36 35 31 28 26 24 22 20 18 20 19 20 19 16 17 16 13
10 15 17 15 16 20 22 25 28 26 18 16 18 12 21 24 37 46 41 39 43 41 37 37 33 31 39 36 30 26 23 21 20 19 19 19 18 18 18 17 14 12 11
1 8 11 13 15 20 24 27 25 26 27 23 21 19 7 19 17 31 43 41 44 42 42 41 33 34 30 36 30 21 17 18 19 18 17 18 17 16 15 14 12 10 9
3 1 5 11 15 21 27 32 25 30 27 28 27 26 30 13 20 21 27 41 45 40 40 40 35 29 28 38 21 17 3 3 11 17 18 17 16 15 13 12 10 8 7
4 1 4 8 14 21 24 25 20 16 15 19 23 29 29 40 23 27 24 35 42 42 43 42 39 34 30 30 39 12 3 4 8 12 17 17 17 16 13 12 10 7 6
6 3 4 7 12 17 20 22 23 18 11 16 18 22 33 33 29 26 31 41 42 39 40 41 42 38 33 28 31 19 10 17 4 3 12 17 17 17 16 14 12 9 7
15 9 4 7 11 18 20 21 19 14 15 13 17 19 27 35 37 37 37 39 44 40 39 40 39 36 41 34 32 17 21 15 12 5 3 8 17 19 17 15 12 10 8
24 16 8 9 13 18 21 22 21 16 18 15 19 15 15 25 35 45 36 36 45 47 43 43 43 40 38 34 32 27 26 9 9 6 3 5 12 17 19 16 15 12 10
Wind_Direction
184 170 181 171 168 166 161 156 153 149 142 138 137 138 139 140 142 144 144 140 139 141 136 139 137 131 123 114 115 115 114 115 116 118 121 114 97 89 89 89 85 82 90
172 172 183 177 174 173 169 164 163 160 154 147 142 144 145 143 149 150 143 144 145 141 146 148 148 143 130 124 116 117 115 111 112 122 117 121 115 102 100 92 87 80 80
185 176 181 181 181 180 175 174 171 161 160 159 154 150 152 155 158 147 143 142 142 140 142 147 149 147 137 133 123 116 113 110 114 116 119 116 110 107 101 94 86 79 76
172 177 181 184 186 181 179 177 176 167 166 160 150 157 167 160 166 160 157 148 144 143 141 142 143 142 141 136 130 122 117 114 108 112 117 111 107 106 101 95 86 82 88
175 181 185 186 184 189 183 178 183 177 172 165 171 157 172 167 168 163 157 151 148 148 146 147 145 145 143 140 140 131 126 125 125 103 101 96 97 99 96 93 94 88 98
181 187 189 190 191 188 192 189 190 183 178 171 167 168 172 181 179 161 157 153 156 156 150 148 146 145 143 138 135 137 147 136 145 119 107 105 101 99 102 106 103 101 86
188 192 193 194 198 196 191 190 195 189 182 172 174 177 179 177 170 164 161 157 161 157 154 153 150 147 144 140 136 141 150 134 138 126 119 110 107 112 102 93 88 111 91
204 203 199 198 201 203 200 193 195 195 181 181 180 183 179 175 171 170 166 163 163 159 157 153 149 149 153 151 146 142 142 134 129 124 124 119 111 103 102 113 98 98 96
135 215 212 209 208 209 208 198 195 192 190 190 184 188 181 180 173 175 171 168 167 161 159 157 152 151 153 154 150 154 150 142 130 124 121 128 127 109 110 116 121 104 93
215 223 222 218 214 214 213 211 201 196 197 194 187 190 189 182 180 177 173 169 170 165 165 162 155 157 153 151 144 150 150 147 137 126 128 132 123 122 114 112 118 114 109
216 220 226 223 221 220 219 215 209 203 202 197 188 195 193 188 184 178 174 175 171 172 164 166 151 156 157 156 155 152 149 142 133 125 129 127 122 124 118 117 110 108 112
239 234 227 228 222 225 224 222 214 205 204 195 191 192 197 194 190 182 174 178 175 175 167 170 153 158 163 158 152 155 153 139 134 134 133 130 128 124 119 114 110 109 106
263 247 236 231 229 227 228 226 219 212 203 195 195 200 198 196 193 182 175 179 179 179 167 174 163 158 159 155 153 152 149 146 136 136 140 135 123 124 120 115 114 111 108
250 244 230 228 231 232 231 227 221 216 204 196 200 203 198 196 194 185 181 183 183 183 175 181 167 158 160 157 156 151 149 144 139 139 141 139 136 129 121 119 116 112 110
257 245 232 226 235 228 234 230 223 218 210 204 203 202 200 199 195 188 185 185 186 184 182 184 173 161 163 161 160 155 152 146 142 142 140 136 135 130 126 121 120 116 109
252 246 237 228 231 226 225 228 228 217 213 206 206 202 204 205 199 191 186 188 190 186 187 187 174 164 165 165 160 158 154 151 148 147 149 144 135 137 128 127 121 117 109
249 245 237 233 227 225 221 229 220 215 214 204 207 206 203 206 202 193 189 191 191 190 191 186 173 167 170 166 163 161 159 158 156 158 157 154 141 135 135 128 122 116 116
252 243 237 234 228 227 220 218 201 202 212 208 208 207 204 207 203 196 192 192 192 190 192 186 174 167 169 168 163 162 161 161 163 166 164 158 150 143 134 130 127 120 114
251 237 231 232 230 227 217 211 197 194 207 212 202 208 205 205 203 197 193 193 193 190 193 188 176 171 168 168 164 164 164 165 167 168 166 166 163 157 154 149 150 140 121
251 231 234 232 225 221 212 201 192 193 188 184 186 179 192 197 198 195 191 192 193 192 193 188 178 176 173 167 161 162 163 166 170 172 171 171 171 169 167 165 163 152 128
117 201 206 204 198 197 193 186 189 196 204 203 196 188 232 236 215 201 187 191 193 193 193 190 180 173 161 165 147 142 152 164 166 170 174 175 174 172 171 171 171 167 152
43 153 193 203 200 203 201 199 200 210 217 219 223 219 220 220 244 224 195 188 190 190 191 189 181 161 164 166 157 129 125 128 181 177 177 179 178 178 176 171 169 163 153
21 309 205 209 207 209 210 206 205 203 217 221 217 220 210 209 224 223 214 197 191 190 191 190 187 172 168 177 162 146 143 189 141 197 193 192 193 189 189 184 181 176 165
18 341 269 230 215 216 216 209 204 200 184 211 212 204 203 200 195 225 220 209 195 193 189 188 188 180 173 172 178 177 169 141 164 154 208 199 198 196 195 195 190 186 177
23 356 299 239 234 226 218 213 213 211 197 197 204 209 189 194 190 191 212 213 198 195 194 190 184 182 180 177 182 161 150 153 142 140 158 178 197 198 198 201 203 195 186
16 16 322 268 243 236 223 221 220 216 215 205 198 204 206 190 185 181 205 218 205 200 202 197 193 190 184 185 188 186 167 161 170 148 120 136 170 195 200 200 202 202 199